This demonstration page uses our WeatherBlox Daily Observations layout. Learn more.

Left ArrowRight Arrow

39.01783, -85.05884

Hourly Observations for September 11, 2017

Temp ( °F °C ) Dew Point ( °F °C ) Humidity (%) Winds ( mph kmh ) Pressure ( in mb ) Visibility ( mi km ) Precip ( " mm )
12:52 am 00:52 Mostly Clear 60 15.6 50 10 70 70 ENE 8 13 30.27 1025 10 16 0.00 0.00
1:52 am 01:52 Mostly Clear 59 15 50 10 72 72 ENE 8 13 30.26 1025 10 16 0.00 0.00
2:52 am 02:52 Mostly Clear 58 14.4 51 10.6 78 78 ENE 9 15 30.25 1024 10 16 0.00 0.00
3:52 am 03:52 Mostly Clear 57 13.9 51 10.6 81 81 E 8 13 30.24 1024 10 16 0.00 0.00
4:52 am 04:52 Mostly Clear 57 13.9 51 10.6 81 81 ENE 8 13 30.22 1024 10 16 0.00 0.00
5:52 am 05:52 Mostly Clear 56 13.3 52 11.1 87 87 ENE 8 13 30.21 1023 10 16 0.00 0.00
6:52 am 06:52 Mostly Cloudy 56 13.3 51 10.6 84 84 ENE 9 15 30.23 1024 10 16 0.00 0.00
7:52 am 07:52 Cloudy 56 13.3 52 11.1 87 87 ENE 8 13 30.23 1024 10 16 0.00 0.00
8:52 am 08:52 Cloudy 57 13.9 52 11.1 83 83 ENE 12 19 30.22 1023 10 16 0.00 0.00
9:52 am 09:52 Cloudy 60 15.6 53 11.7 78 78 ENE 10 17 30.20 1023 10 16 0.00 0.00
10:52 am 10:52 Mostly Cloudy 64 17.8 53 11.7 68 68 E 9 15 30.22 1023 10 16 0.00 0.00
11:52 am 11:52 Cloudy 66 18.9 53 11.7 63 63 ENE 7 11 30.20 1023 10 16 0.00 0.00
12:52 pm 12:52 Cloudy 69 20.6 51 10.6 53 53 ENE 14 22 30.17 1022 10 16 0.00 0.00
1:52 pm 13:52 Cloudy 70 21.1 51 10.6 51 51 ENE 16 26 30.16 1021 10 16 0.00 0.00
2:52 pm 14:52 Cloudy 71 21.7 51 10.6 49 49 ENE 13 20 30.13 1020 10 16 0.00 0.00
3:52 pm 15:52 Cloudy 72 22.2 53 11.7 52 52 ENE 16 26 30.09 1019 10 16 0.00 0.00
4:52 pm 16:52 Cloudy 71 21.7 50 10 47 47 ENE 16 26 30.07 1018 10 16 0.00 0.00
5:52 pm 17:52 Cloudy 70 21.1 51 10.6 51 51 E 17 28 30.08 1019 10 16 0.00 0.00
6:52 pm 18:52 Cloudy 68 20 51 10.6 55 55 E 13 20 30.08 1019 10 16 0.00 0.00
7:52 pm 19:52 Cloudy 65 18.3 52 11.1 63 63 E 8 13 30.07 1018 10 16 0.00 0.00
8:52 pm 20:52 Cloudy 65 18.3 53 11.7 66 66 ENE 12 19 30.06 1018 10 16 0.00 0.00
9:52 pm 21:52 Cloudy 64 17.8 54 12.2 70 70 E 13 20 30.05 1018 10 16 0.00 0.00
10:52 pm 22:52 Cloudy 64 17.8 54 12.2 70 70 ENE 10 17 30.02 1017 10 16 0.00 0.00
11:52 pm 23:52 Cloudy 63 17.2 54 12.2 73 73 ENE 10 17 30.02 1017 10 16 0.00 0.00

Powered by AerisWeather